RH
98 97 98 97 96 97 97 96 94 97 101 99 100 100 100 100 99 99 100 100 100 100 100 100 98 98 100 99 98 96 91 85 80 83 75 38 12 20 32 32 32 26 23 25 21 21 22 22 25 25 25 24 22 22 19 12 8 8 13 17 18 17 14 11 10 9 7 6 7 7 7 7 7 10 12 10 9 28 43 39 38 42 44 48 59 77 88 88
98 98 99 98 97 97 97 98 98 100 100 99 100 100 99 99 97 98 99 100 100 100 100 100 99 100 100 99 99 90 87 87 86 82 54 15 6 21 33 35 36 32 26 26 23 20 21 21 22 24 24 24 21 19 17 12 8 9 13 16 16 13 11 9 8 8 6 6 7 6 7 7 6 11 17 15 11 25 46 47 45 54 57 58 70 82 84 83
98 99 100 99 100 100 100 100 100 100 100 100 100 99 100 99 98 98 97 99 100 99 100 100 99 101 99 100 94 81 84 88 82 68 34 14 16 12 21 37 36 31 29 22 18 20 20 19 19 21 23 25 22 18 16 11 9 9 11 16 14 10 9 8 8 7 6 5 6 6 7 6 6 8 13 17 17 26 47 54 57 66 68 69 78 82 81 81
97 96 96 97 98 98 99 99 99 100 100 100 100 100 100 99 100 99 97 99 99 100 100 99 101 99 99 98 82 74 87 84 66 47 23 18 22 11 14 31 34 29 26 19 15 18 18 17 17 18 22 26 22 18 15 11 9 9 11 13 11 9 9 8 7 7 6 5 6 7 6 6 6 5 8 15 23 39 50 52 61 70 71 77 82 82 82 83
99 98 96 96 96 96 97 98 99 98 98 99 99 100 99 99 100 99 100 100 99 100 98 99 100 97 99 88 69 76 86 66 41 29 17 15 16 13 15 25 33 28 19 16 16 17 17 17 16 17 21 24 22 18 16 11 8 9 10 10 10 9 9 8 7 6 6 6 6 7 7 6 6 5 7 8 19 45 51 46 57 65 69 79 82 82 85 88
100 99 99 99 98 98 98 100 99 99 98 98 98 98 99 99 99 99 100 98 99 99 97 100 98 98 96 72 65 84 77 46 28 23 18 15 13 13 17 24 31 27 17 14 17 17 16 16 17 19 21 22 21 19 15 10 8 9 9 9 9 9 9 8 6 6 6 6 7 7 7 6 5 6 5 7 23 44 45 42 52 59 67 76 79 83 87 90
100 99 100 99 98 97 98 97 95 96 94 93 96 97 97 98 98 99 98 98 100 95 93 99 97 95 85 63 65 84 80 55 31 24 21 18 15 11 18 27 29 26 19 17 18 17 16 17 18 19 20 20 19 17 14 10 8 8 8 8 8 9 8 8 6 6 6 7 7 6 7 6 6 6 5 19 37 44 42 40 47 58 66 73 79 86 89 89
100 99 100 99 97 95 95 92 86 87 86 84 89 96 99 99 100 100 100 100 99 97 94 96 98 91 81 74 71 75 76 55 28 25 23 17 16 10 14 21 24 23 18 18 17 14 17 18 17 18 20 19 16 14 12 11 9 8 8 7 7 8 7 7 7 6 6 7 7 6 7 6 7 6 6 24 37 36 38 40 50 64 69 74 81 87 90 90
99 100 100 99 97 96 96 90 81 78 78 80 83 90 96 98 100 97 98 102 98 100 98 97 100 85 78 84 79 73 59 33 23 26 20 17 18 10 9 12 13 16 18 20 15 14 18 18 16 16 17 16 13 13 11 11 10 7 7 6 7 7 7 7 7 7 6 6 6 6 7 5 6 6 6 24 32 29 34 41 55 69 73 78 84 88 90 90
99 99 98 99 99 97 95 90 82 75 75 82 84 86 91 92 92 85 82 94 101 101 98 101 97 80 78 79 74 71 43 21 26 25 17 19 17 10 9 10 9 13 19 19 17 17 18 17 14 11 13 13 11 11 10 10 9 6 6 6 6 7 7 7 7 7 6 6 7 6 7 5 5 6 6 19 29 29 34 42 55 67 73 77 81 86 89 88
99 98 95 95 96 95 93 89 84 75 69 74 78 81 81 72 71 74 67 72 90 100 97 97 92 85 84 76 74 63 25 17 29 25 23 21 16 13 10 12 11 13 17 16 17 17 16 16 11 9 10 10 9 10 8 8 7 6 6 6 6 6 6 7 7 6 6 6 7 6 7 5 5 7 4 11 24 30 34 39 50 64 70 74 77 84 87 87
99 98 93 89 89 88 88 88 83 75 63 58 62 64 60 49 48 60 63 60 72 94 98 91 90 91 88 82 77 47 8 12 22 21 27 21 18 19 13 14 11 11 14 13 15 15 15 14 10 9 8 8 9 9 8 7 6 6 7 7 7 6 6 8 7 7 7 7 7 6 8 7 5 7 5 5 15 25 34 36 46 62 67 71 74 80 85 85
96 98 95 89 88 86 84 85 83 79 67 51 46 43 38 33 35 47 66 70 64 75 88 85 86 89 91 84 56 20 5 11 11 13 23 21 20 19 16 16 12 12 13 12 15 14 14 11 8 9 7 8 10 8 9 7 7 7 7 8 9 9 9 8 7 7 7 7 7 6 10 11 6 5 5 4 6 17 33 35 44 60 65 69 73 79 84 83
96 97 96 93 90 87 85 83 82 78 66 48 35 29 23 24 35 50 67 70 58 64 78 81 87 91 95 80 38 16 19 19 16 17 20 22 20 18 17 16 14 14 13 13 14 13 12 9 8 9 8 9 9 9 10 9 9 8 8 9 10 13 13 8 7 7 6 7 6 6 11 13 8 5 4 5 3 10 30 35 40 54 59 66 73 77 82 81
94 94 92 91 88 83 78 70 66 59 47 34 23 17 16 19 40 63 68 59 57 68 77 82 88 90 91 74 40 25 26 29 32 22 17 21 21 19 17 15 15 15 13 14 13 11 11 10 10 11 10 10 9 11 13 12 11 9 11 15 13 13 12 9 7 7 6 7 6 6 12 12 8 6 4 5 4 6 22 31 38 47 52 63 73 76 81 81
91 91 86 83 78 67 55 47 41 35 30 23 16 13 11 19 47 73 70 59 63 73 83 87 84 84 82 62 38 28 26 32 31 18 15 17 18 20 16 15 16 14 14 13 11 11 11 11 12 11 10 11 12 13 14 16 17 15 16 19 19 15 13 10 7 7 6 6 6 6 10 11 8 6 5 5 4 6 16 30 40 42 49 65 72 76 80 81
89 89 82 75 67 50 37 33 30 28 26 17 11 10 8 23 57 76 71 66 71 76 82 78 71 77 72 47 37 34 25 25 22 16 16 13 14 19 17 15 14 14 14 12 12 12 11 13 14 14 13 14 14 14 17 22 25 24 21 20 19 14 13 12 8 7 6 6 7 7 8 9 9 6 5 4 4 8 14 28 40 42 51 64 69 75 79 81
83 86 83 73 58 41 28 25 27 31 28 17 13 10 8 29 60 75 75 75 83 87 83 75 70 70 57 42 45 39 23 20 20 18 15 12 13 16 16 16 14 14 14 14 14 12 13 15 15 19 19 18 17 16 21 23 23 27 26 23 20 13 12 12 9 7 5 6 7 8 9 8 8 6 6 6 4 8 12 21 36 44 53 61 65 74 78 80
76 80 77 65 48 34 24 19 27 37 34 20 9 6 21 53 75 84 84 78 83 85 76 76 73 51 32 31 35 30 21 18 19 18 15 12 12 13 16 16 14 15 16 18 17 13 15 18 19 23 23 22 20 16 18 17 16 18 19 20 19 15 13 9 8 7 5 7 7 8 10 6 7 6 6 7 6 10 12 20 39 49 56 61 66 75 77 78
73 68 63 54 37 27 22 18 27 42 48 41 28 27 45 63 69 80 85 77 74 64 46 51 59 42 26 24 23 21 18 15 15 16 13 11 12 14 16 15 15 17 18 21 21 16 16 23 25 24 24 23 21 19 17 15 15 14 13 15 14 13 13 9 8 6 4 8 7 8 9 6 7 7 7 8 7 11 12 24 47 55 57 62 68 76 77 78
60 53 50 42 31 27 21 18 30 46 59 66 61 55 49 37 32 42 51 55 58 54 40 35 41 40 32 26 23 20 18 15 15 14 12 11 12 17 18 17 19 22 20 18 20 19 18 25 27 22 22 21 21 24 24 20 20 20 18 17 15 14 14 11 9 8 5 9 10 9 9 8 8 8 8 9 9 12 13 26 50 56 54 60 66 73 77 77
47 47 46 41 35 29 19 18 32 42 51 68 78 70 44 21 18 20 20 27 32 36 38 32 30 32 28 24 22 19 18 18 17 15 13 12 15 20 20 18 21 23 20 17 20 24 23 25 23 19 19 21 21 23 27 27 24 23 22 21 20 17 14 14 13 10 5 8 12 8 9 11 11 9 9 12 13 14 14 26 47 53 53 58 64 71 75 77
51 51 50 53 45 31 25 20 23 32 42 61 77 67 39 18 15 17 20 27 26 20 22 23 25 27 24 23 19 17 19 18 18 17 13 15 18 19 19 19 20 18 18 19 22 27 27 22 17 15 16 20 24 24 27 30 26 25 25 23 23 17 15 18 16 12 10 14 16 11 13 18 15 10 10 14 17 15 13 21 38 47 51 57 62 68 72 75
62 61 59 65 57 40 29 16 17 33 44 57 63 45 28 23 21 22 29 37 35 25 20 17 16 18 18 17 16 18 20 17 16 16 13 16 19 18 19 18 17 16 15 17 18 22 21 15 12 13 14 18 24 26 29 33 30 29 26 23 22 17 17 19 17 19 22 26 25 20 25 32 22 11 10 14 15 17 16 14 28 45 53 59 63 66 67 70
73 72 68 78 74 46 27 29 41 43 38 47 51 29 19 29 28 26 35 50 49 32 22 19 16 14 12 11 13 16 18 16 14 14 13 15 17 18 18 15 14 16 14 13 15 17 15 12 13 14 14 15 20 23 26 30 31 33 32 25 20 18 18 19 18 23 27 28 27 21 27 39 31 13 13 16 9 13 18 14 30 54 59 60 64 66 65 70
81 83 77 89 88 52 33 48 57 43 27 27 28 19 19 28 26 24 43 72 74 43 22 20 19 15 11 10 12 13 19 18 12 11 13 14 15 16 17 14 12 14 12 10 12 13 11 11 13 16 18 16 17 19 20 26 30 33 31 23 18 17 18 21 19 20 25 29 26 19 23 38 38 21 16 17 9 11 17 19 42 63 60 58 62 65 67 75
80 90 85 90 93 79 66 58 48 43 35 22 16 19 24 25 20 26 57 85 75 42 22 18 16 14 11 12 11 15 24 21 13 12 12 14 15 14 17 15 11 11 10 9 13 14 11 12 14 17 22 20 18 20 22 25 29 30 25 18 17 16 15 20 19 18 24 27 24 18 20 29 36 30 21 16 12 15 19 26 53 67 59 61 65 64 71 79
68 82 82 79 79 84 87 75 67 63 44 25 21 25 28 27 23 35 71 86 53 23 19 18 17 15 12 13 11 15 20 17 17 17 11 14 16 14 18 16 12 11 9 11 19 20 15 17 19 17 20 20 18 18 20 20 24 25 19 15 16 13 13 15 14 19 23 23 24 23 22 26 33 34 24 17 15 18 21 28 53 69 63 63 66 66 74 81
56 68 71 70 58 55 71 82 80 65 40 32 38 37 31 29 31 45 77 83 42 15 18 19 19 19 16 15 13 15 15 14 18 16 11 16 16 15 18 16 14 14 11 12 17 19 17 16 16 14 16 18 16 14 15 16 19 19 14 14 14 11 13 14 13 22 26 29 34 30 25 27 36 37 23 18 20 17 19 30 52 68 65 64 66 68 78 84
48 54 61 73 62 49 70 82 65 44 35 43 48 39 32 32 43 67 86 71 33 14 17 20 22 22 20 19 18 17 17 16 15 11 13 19 17 16 16 14 13 15 16 15 14 14 12 12 12 12 14 14 13 14 13 12 14 14 13 14 14 13 16 16 18 22 26 37 40 32 27 26 36 44 32 26 27 20 28 51 66 65 60 65 66 67 80 87
40 43 53 75 73 62 74 70 42 30 38 48 43 35 37 39 52 79 80 47 21 15 16 21 23 21 21 23 23 22 20 20 16 12 15 19 20 21 19 19 18 17 21 21 19 14 10 12 12 10 12 12 11 13 12 11 10 10 14 15 17 24 24 19 19 18 26 42 38 24 24 25 34 47 44 39 36 31 44 65 70 61 58 63 61 66 82 88
34 38 45 59 65 67 69 47 21 28 45 50 45 42 46 46 55 74 63 33 26 23 14 18 21 17 19 21 22 23 22 22 18 14 16 21 28 26 22 25 23 22 27 27 25 22 16 14 12 10 12 10 12 14 12 12 10 11 15 16 21 32 33 26 25 25 32 44 37 21 21 30 39 43 43 44 40 38 48 57 59 58 60 63 61 68 80 84
31 34 34 39 48 53 49 31 23 42 55 52 51 51 52 58 62 60 46 33 30 21 12 15 15 12 17 20 21 21 21 22 17 15 17 20 27 27 20 21 19 21 29 31 28 26 24 18 10 11 13 10 12 16 16 17 16 14 17 21 27 33 36 34 31 29 32 33 29 20 21 37 49 41 37 43 40 39 45 49 53 55 58 65 70 73 77 79
28 29 30 35 43 41 33 34 45 56 57 55 56 53 60 74 66 47 39 33 24 17 15 16 13 11 14 19 24 20 18 21 15 13 22 27 30 31 25 17 15 18 22 27 28 25 29 29 19 14 14 12 12 12 15 18 16 15 14 19 31 34 31 34 34 32 35 39 35 26 24 40 54 46 37 39 38 39 45 48 51 54 57 66 73 75 78 81
28 31 40 46 45 39 30 37 54 57 58 63 60 57 69 75 59 45 41 30 19 19 16 13 11 12 13 15 20 18 19 28 25 15 22 32 32 31 29 21 16 16 18 26 29 21 24 31 22 11 11 12 12 11 11 11 18 24 14 11 28 37 29 31 42 44 46 51 45 37 39 46 51 47 35 33 37 41 48 51 51 54 59 68 77 78 79 83
28 36 60 66 53 46 40 42 53 54 58 68 68 65 65 55 41 36 30 19 16 16 13 14 13 13 17 15 15 19 27 42 48 33 24 31 35 28 23 19 14 13 18 29 30 21 23 32 21 8 11 11 9 13 9 8 29 40 25 15 23 29 27 35 51 54 47 46 42 46 53 48 45 46 35 31 41 47 52 55 56 57 60 68 78 81 80 86
39 46 65 68 57 54 53 52 55 53 56 68 78 72 50 32 26 22 16 13 13 10 11 19 17 14 21 22 17 19 27 38 41 33 32 45 51 40 25 19 16 12 11 18 26 25 26 34 27 12 14 12 6 12 9 6 24 34 24 18 17 19 29 40 52 51 43 39 40 51 59 49 51 60 51 43 52 59 57 58 65 70 72 73 75 80 86 91
64 64 62 52 47 52 55 52 50 49 55 67 79 70 43 29 24 16 14 12 10 9 12 18 18 14 19 24 22 15 20 36 39 37 50 61 56 46 36 29 22 17 12 12 20 22 20 31 33 16 13 17 8 9 14 10 13 17 16 17 25 42 53 49 46 46 48 46 39 48 64 62 62 70 69 64 66 69 65 63 73 82 86 87 85 88 94 94
80 78 66 45 38 45 48 46 43 47 59 72 77 62 37 28 23 16 15 12 9 11 13 16 16 16 18 21 22 16 15 37 54 52 61 71 60 47 43 37 28 25 23 18 17 18 21 36 42 24 14 21 16 13 22 22 12 11 14 15 26 50 60 55 50 42 47 59 54 56 74 78 70 69 76 77 70 69 71 72 79 85 88 92 91 93 96 95
76 76 66 43 40 44 40 43 51 58 68 75 69 50 31 23 17 13 11 10 10 11 13 14 14 19 24 19 19 19 14 28 53 55 56 67 62 49 42 36 33 29 24 23 24 24 28 38 49 41 21 23 32 26 21 23 17 14 20 22 25 36 38 42 48 36 36 63 73 68 77 84 78 72 77 83 77 72 75 79 85 88 88 91 91 90 93 94
62 65 59 41 42 45 43 56 67 66 68 67 56 43 34 26 19 14 12 9 8 8 9 12 16 20 23 21 21 20 15 19 38 51 56 57 57 61 56 39 32 31 29 36 40 37 40 42 50 53 34 29 42 31 15 19 20 16 21 24 26 37 42 43 50 47 43 56 64 66 80 90 84 75 76 85 87 82 80 83 87 90 90 92 92 88 88 90
67 66 53 38 41 44 52 67 65 57 60 58 47 38 34 30 26 23 20 17 11 9 12 15 20 21 19 21 20 16 17 18 25 47 63 59 54 60 54 35 29 31 34 46 46 39 49 49 41 41 33 28 32 25 20 22 20 18 21 23 26 39 50 52 57 61 57 54 54 64 86 88 74 70 75 83 88 87 85 85 88 92 92 91 92 90 89 90
67 63 45 35 39 40 54 69 62 56 56 47 38 35 34 33 32 28 28 27 17 12 17 18 18 21 20 21 20 16 20 19 20 39 55 55 51 49 41 34 39 44 45 58 58 42 46 53 48 50 53 46 33 24 24 24 24 32 33 32 35 36 39 41 45 56 64 62 58 66 81 76 64 72 81 82 84 86 88 89 90 94 93 90 91 92 91 91
60 60 46 38 38 38 55 68 64 64 58 47 46 46 39 33 31 32 33 33 25 18 23 23 18 20 20 19 21 19 19 20 21 28 38 45 47 47 42 37 47 56 53 58 59 46 49 61 63 69 75 65 46 35 38 38 38 41 40 40 43 44 48 43 35 47 58 51 51 65 77 74 73 83 87 82 83 87 90 92 90 92 93 91 91 92 92 91
65 63 47 35 33 40 59 62 56 63 62 59 63 57 45 37 34 36 35 30 24 18 22 24 21 20 19 19 23 21 19 22 21 24 36 46 42 37 38 38 46 54 48 46 47 44 56 67 63 69 81 76 63 54 54 53 49 46 43 45 51 59 63 49 36 47 51 44 57 75 83 86 88 90 89 86 87 90 91 91 89 88 89 89 90 91 90 89
65 57 43 38 37 42 56 53 48 62 67 68 72 61 51 50 43 36 35 32 26 20 21 22 20 21 23 24 27 26 22 19 20 29 42 48 40 29 29 33 37 39 41 46 50 51 62 66 56 61 77 81 75 63 53 47 49 52 48 48 58 67 68 61 62 69 61 59 74 77 78 95 100 94 94 91 89 92 92 91 89 87 86 88 91 90 89 90
64 52 43 47 51 51 58 54 50 60 61 63 72 64 56 57 51 43 39 34 31 29 28 24 21 29 36 34 38 42 34 26 33 46 49 45 40 28 22 26 31 39 47 45 43 53 67 70 63 57 59 60 57 55 56 51 47 48 48 51 62 68 70 77 89 89 74 71 77 70 73 95 101 95 96 95 92 93 91 90 90 89 87 88 88 86 84 81
54 47 41 46 54 59 63 58 52 56 55 56 66 64 58 57 55 57 49 34 31 33 38 40 35 39 45 45 52 62 60 56 58 60 57 53 50 42 36 35 35 42 47 37 34 48 57 59 63 58 50 47 44 49 61 60 52 53 55 55 62 70 77 83 89 90 82 77 76 75 81 95 97 94 92 90 90 91 89 90 89 85 84 82 78 78 73 63
45 45 43 46 50 53 57 54 50 55 56 55 61 61 58 54 52 52 45 41 43 37 38 52 50 44 44 43 48 61 69 75 76 69 64 64 67 65 59 55 55 51 46 46 53 61 59 56 61 60 50 42 43 48 51 50 51 56 54 49 55 71 80 82 85 86 84 84 84 85 92 98 92 85 81 80 85 89 89 90 86 77 72 68 65 64 61 55
52 50 49 54 52 45 47 48 48 56 56 54 60 56 49 50 50 44 36 41 53 47 37 46 49 44 44 41 43 51 52 57 64 63 59 59 69 71 59 58 70 66 54 59 69 71 69 67 67 67 59 45 38 39 41 41 44 48 48 48 56 70 76 80 84 83 84 92 92 89 98 101 85 71 69 73 79 84 86 88 84 71 61 60 60 60 59 58
45 46 46 59 61 47 40 38 41 55 58 55 59 52 45 48 45 42 41 37 42 45 39 40 45 45 43 41 44 46 39 38 45 45 42 43 50 54 45 45 59 64 62 70 78 82 83 79 75 77 77 66 51 41 38 38 42 52 64 69 71 72 73 77 82 81 83 91 90 89 99 99 82 67 64 64 65 69 73 76 76 68 62 65 67 66 66 65
43 49 45 60 74 58 38 32 36 48 52 48 47 43 45 48 38 41 55 46 35 37 36 37 44 49 49 48 45 40 33 31 33 31 30 31 30 29 30 33 39 51 68 79 85 92 91 86 85 87 86 79 69 60 53 50 58 71 80 82 79 73 71 78 84 81 77 81 85 89 92 89 77 65 60 61 62 65 68 70 70 69 67 68 68 68 70 70
Wind_Speed
12 12 12 12 12 12 12 12 12 12 11 11 12 11 11 12 12 12 12 13 13 14 14 15 15 16 16 16 17 17 19 22 21 16 14 16 15 9 6 5 5 5 7 8 9 7 6 9 10 12 10 7 5 4 7 7 4 4 3 5 5 6 7 8 9 7 4 2 3 4 7 6 3 3 2 2 5 11 15 12 10 10 10 15 24 35 37 33
12 12 12 12 12 12 12 12 12 13 12 12 12 12 12 12 12 12 12 13 13 14 14 15 15 16 16 16 16 16 20 22 20 19 21 17 14 14 11 10 11 8 6 9 12 11 7 7 9 9 6 4 4 4 5 4 4 4 3 4 5 7 9 10 11 11 8 3 3 3 5 3 4 4 2 1 3 9 13 10 11 14 13 18 27 32 31 30
12 12 12 12 13 13 13 13 13 13 13 13 12 12 12 12 12 12 12 12 13 13 14 14 15 15 16 16 15 15 18 19 13 14 13 9 13 20 18 16 15 12 9 12 14 14 11 9 11 9 5 5 5 5 5 4 4 4 4 4 6 8 10 13 13 13 12 5 3 3 3 1 2 1 2 2 4 8 10 7 10 14 14 17 19 21 23 24
12 12 12 13 13 13 13 13 13 13 13 13 13 13 12 12 13 13 12 12 13 13 14 14 14 15 15 15 13 14 15 11 6 8 5 4 6 15 20 20 17 13 11 12 13 15 15 12 12 10 6 5 5 6 6 5 4 4 5 6 8 8 10 14 13 13 13 6 2 2 2 2 2 2 2 4 5 7 7 5 9 15 15 16 16 15 17 16
12 12 12 12 12 13 13 13 13 13 13 14 14 13 13 13 12 13 13 13 13 13 13 13 14 14 14 14 12 12 9 3 0 1 1 2 2 7 17 20 17 14 11 12 13 14 16 13 10 9 7 5 5 5 6 7 5 4 6 9 12 10 12 15 11 12 10 7 5 5 4 3 5 5 3 2 2 4 7 8 11 15 15 16 14 12 12 11
13 13 13 13 13 13 13 13 14 13 13 13 14 14 14 13 13 13 13 13 13 12 12 12 13 13 14 13 9 7 3 1 5 5 2 1 3 4 11 17 17 14 11 11 12 11 11 10 9 8 5 5 6 6 7 9 7 6 6 8 12 11 13 14 11 10 7 6 6 7 7 6 6 5 6 3 4 8 9 12 14 16 16 14 12 10 10 11
14 13 13 13 13 13 14 14 14 14 14 13 13 13 14 14 13 12 12 12 12 12 11 11 12 12 13 13 6 1 1 7 13 11 5 3 3 5 9 13 16 14 11 11 11 9 7 9 10 7 5 6 7 8 9 9 9 8 8 9 10 11 12 12 12 10 4 2 3 4 8 9 3 3 5 5 11 11 9 12 15 16 17 14 10 10 9 10
14 14 14 14 14 14 14 14 15 15 15 14 13 13 14 14 14 13 12 12 12 11 11 10 11 10 11 12 5 1 3 11 15 9 8 6 5 7 10 11 14 14 13 13 12 9 7 9 9 7 5 6 6 8 9 9 9 9 9 10 10 10 12 11 11 10 4 3 3 2 5 9 5 2 4 7 13 11 11 13 16 16 15 13 11 10 9 9
14 15 14 14 15 15 15 15 15 15 15 15 15 14 14 15 14 14 13 12 12 12 11 10 11 9 7 6 3 3 7 10 9 9 11 8 7 9 11 11 14 15 13 14 14 12 8 7 8 7 6 7 7 8 9 7 6 7 9 10 10 10 12 11 12 12 7 3 5 5 5 9 6 4 3 7 12 11 13 15 17 15 12 11 10 10 9 10
15 15 15 15 15 15 15 15 15 16 15 15 15 15 15 15 15 15 14 13 12 11 11 9 9 7 6 4 2 3 7 5 6 11 10 9 9 10 11 10 14 16 12 12 14 13 9 8 9 7 7 7 7 7 8 7 6 7 10 10 11 12 11 10 13 11 7 2 4 2 3 7 5 0 2 5 11 13 15 15 17 16 13 11 10 9 8 9
16 16 16 15 15 15 15 15 16 16 16 16 16 16 15 15 15 15 15 14 12 11 10 8 7 5 5 5 2 4 10 5 5 7 8 10 11 12 13 12 14 16 13 11 13 16 15 15 12 5 5 5 6 8 8 8 8 9 11 10 11 12 11 12 13 10 7 3 4 1 6 7 3 3 6 6 10 15 16 15 16 15 12 12 11 10 7 7
16 16 16 16 16 16 16 16 16 16 17 17 17 17 16 16 16 16 16 15 12 11 8 7 4 3 5 4 6 14 17 12 10 10 9 12 10 11 11 13 15 16 16 11 13 21 21 20 15 7 5 3 5 6 6 8 10 10 10 10 11 10 10 11 10 9 8 4 6 5 6 8 4 5 9 8 9 12 15 15 16 14 12 12 11 10 7 8
16 16 16 17 17 17 17 17 17 17 17 18 18 18 18 16 17 17 17 15 12 9 7 6 2 2 4 3 11 23 25 22 21 21 15 12 9 10 10 13 17 16 17 16 17 22 22 21 15 7 6 4 3 3 7 9 7 8 7 6 7 7 7 6 5 7 8 5 7 6 4 7 7 8 10 9 9 10 14 14 14 14 12 11 10 9 8 10
17 17 17 17 17 17 17 17 18 18 18 19 19 19 19 17 17 17 17 15 12 7 4 3 1 1 2 6 18 25 23 24 24 26 22 14 12 13 14 15 18 19 20 21 22 21 19 18 11 5 5 4 3 5 9 8 5 5 6 4 4 4 5 5 4 7 8 6 9 7 4 7 7 10 11 9 10 9 15 14 14 14 12 11 10 9 9 10
17 17 17 17 17 17 18 18 18 19 20 20 20 19 19 17 17 16 16 13 9 5 4 3 3 3 3 9 19 20 14 16 22 26 22 16 15 13 16 18 20 21 21 20 20 19 17 12 5 4 4 4 5 6 6 5 4 3 5 5 4 5 5 6 7 8 8 7 9 8 4 6 7 9 10 9 12 8 14 14 13 14 14 12 10 9 9 8
17 17 17 17 18 18 19 19 20 20 21 21 21 19 19 17 16 15 13 9 6 4 4 3 6 7 3 6 10 14 10 11 16 20 17 16 16 13 16 19 16 16 16 16 16 14 13 9 2 3 3 3 4 4 4 5 5 3 4 5 4 5 5 5 7 10 12 8 9 10 5 4 5 9 10 10 12 8 13 14 15 15 14 13 10 9 9 8
17 17 18 18 18 19 19 20 20 21 22 22 22 20 18 15 14 14 11 6 3 3 6 4 4 6 5 9 11 11 10 13 15 16 16 16 17 17 16 13 10 10 11 13 13 9 7 4 1 2 2 3 3 3 4 5 5 4 4 5 5 6 5 5 6 9 14 11 9 11 9 6 5 10 12 10 13 9 13 16 17 14 12 12 9 10 10 9
18 18 18 18 19 20 20 20 21 21 23 24 23 22 19 14 12 12 7 1 1 2 6 8 5 2 5 9 8 7 10 14 18 18 18 17 17 20 17 9 7 8 7 7 8 5 3 2 2 2 3 4 4 4 5 6 6 5 5 5 5 8 8 8 7 7 12 13 11 11 10 10 8 10 11 9 11 10 11 14 15 14 14 13 11 11 11 10
19 19 19 20 20 20 20 20 21 22 23 24 24 21 15 10 7 5 3 3 2 1 3 5 5 3 4 6 8 12 10 11 19 17 17 19 18 18 17 11 7 6 5 3 4 6 4 1 3 4 5 5 7 7 8 7 7 9 10 7 6 7 8 11 12 12 12 9 13 12 10 12 12 11 12 10 6 7 8 10 13 14 13 13 11 10 11 11
19 20 20 21 21 21 21 20 21 22 22 23 24 17 7 4 3 0 3 5 7 7 8 7 10 8 9 9 12 16 9 8 13 12 16 19 16 13 12 9 6 5 5 4 5 5 5 4 5 6 7 7 8 10 10 10 10 11 10 8 8 7 6 10 13 14 13 8 13 14 11 14 15 12 13 11 8 7 10 11 13 14 12 11 10 9 10 10
21 22 21 22 22 22 20 21 22 22 21 21 19 9 2 3 3 2 3 6 11 14 14 13 13 13 15 14 17 18 9 4 7 8 15 19 15 9 7 7 5 4 5 6 5 4 5 6 7 8 8 9 10 10 11 12 13 11 8 7 8 7 6 10 12 13 12 6 10 13 10 12 14 12 12 11 9 9 9 14 14 15 13 11 11 11 10 8
23 22 22 22 22 22 21 21 21 22 22 19 11 3 6 9 9 11 10 7 10 13 15 17 17 17 18 20 24 21 12 7 8 7 12 19 13 6 5 6 5 4 5 6 5 3 5 7 9 10 9 10 11 11 10 12 12 9 6 6 6 6 7 10 14 16 10 5 8 14 11 8 10 12 12 9 8 7 8 12 15 17 15 13 12 11 11 9
23 22 22 22 22 23 21 20 22 23 21 15 8 8 9 12 13 17 12 4 11 12 12 16 17 16 17 18 23 20 13 9 8 8 13 16 9 7 6 5 7 6 6 7 6 4 4 7 10 11 9 11 11 11 11 9 9 8 6 5 6 7 7 5 11 14 7 3 7 11 7 4 6 9 9 7 7 8 9 12 16 18 16 15 15 13 12 11
22 22 22 21 23 22 20 23 21 16 14 12 14 15 16 17 17 16 7 1 9 11 12 17 15 14 17 17 17 15 10 9 7 8 16 15 7 7 6 6 8 7 6 9 11 8 8 9 10 11 12 12 10 11 10 6 5 7 7 6 6 9 9 6 8 10 6 3 4 8 3 4 4 5 6 6 4 6 9 9 11 13 14 14 13 10 11 11
22 22 21 22 22 22 22 21 13 11 15 11 15 20 19 16 16 12 6 1 6 7 9 13 10 12 20 20 15 12 9 9 8 6 12 17 11 7 6 6 5 7 9 11 11 9 11 12 10 12 14 14 11 10 9 7 3 4 6 7 7 11 11 9 11 9 6 6 2 7 4 4 5 3 5 6 4 6 7 7 9 13 13 13 11 9 9 8
21 21 21 21 21 24 21 10 9 16 17 10 11 20 18 10 12 11 5 1 4 5 6 6 7 9 14 13 11 10 8 8 10 10 10 18 16 8 6 5 4 7 9 10 8 4 9 12 10 12 14 14 12 10 10 8 4 3 4 5 7 11 11 10 10 7 2 4 4 3 5 3 5 4 6 5 6 7 7 9 9 12 13 11 10 9 8 8
21 20 21 20 19 21 13 7 15 18 10 9 14 21 18 15 15 10 3 1 4 5 4 1 3 5 7 10 12 10 6 4 9 12 11 18 17 8 6 5 4 7 7 6 5 4 8 12 11 11 10 10 10 8 7 8 5 3 4 6 9 10 11 9 6 6 3 3 4 1 6 2 3 5 8 6 6 6 6 10 10 11 12 11 10 8 8 10
21 20 21 21 19 16 11 13 17 12 6 11 14 17 18 18 14 7 3 1 4 3 2 0 1 3 3 8 13 9 6 3 6 9 11 20 18 7 6 9 6 8 8 5 5 5 8 11 10 10 6 6 6 5 6 7 4 4 4 8 11 11 12 9 6 5 2 0 4 3 4 3 3 5 7 7 6 4 5 9 12 12 12 12 10 8 10 12
23 23 22 23 21 13 8 13 13 8 11 12 12 16 18 15 9 3 2 1 3 3 1 1 1 3 2 5 9 7 7 4 3 6 10 18 18 7 4 9 9 10 9 7 7 6 6 8 10 9 6 5 4 5 6 4 3 5 7 9 9 9 10 7 6 4 2 2 5 4 2 3 3 6 4 5 5 6 6 6 10 12 12 12 10 10 12 12
25 25 24 22 18 9 6 11 14 11 16 14 12 16 15 9 4 2 1 2 3 2 1 1 1 4 4 5 6 6 8 7 5 6 8 10 12 8 2 5 8 8 8 8 8 9 7 5 6 6 4 3 2 2 4 5 7 7 7 8 7 8 7 5 5 3 4 3 5 3 1 3 2 6 2 0 5 7 5 8 9 11 12 10 10 12 12 12
26 26 24 20 16 9 5 8 10 10 14 13 13 13 8 3 2 2 2 2 4 5 1 1 3 7 7 6 5 6 8 8 7 6 7 7 8 6 2 3 4 4 5 5 6 10 11 6 3 4 5 4 2 2 4 8 9 6 5 5 4 5 4 3 3 3 3 4 5 5 3 4 4 5 3 1 5 3 9 14 11 11 11 7 9 12 12 11
27 26 24 21 17 13 10 9 7 7 10 12 11 7 2 1 1 3 3 3 4 3 2 2 5 7 8 8 6 7 8 7 8 7 6 7 6 5 5 4 3 2 4 4 3 7 8 6 5 3 5 5 3 3 5 6 7 6 5 4 3 3 3 2 3 4 3 4 5 7 6 5 4 4 2 3 8 7 10 15 15 14 11 8 11 13 13 11
27 26 24 20 15 16 16 11 6 5 9 11 7 2 2 2 2 5 4 3 4 3 6 5 4 4 7 8 6 7 7 6 8 6 6 7 6 6 8 9 6 4 4 4 4 4 4 5 7 4 3 4 4 4 4 4 4 7 6 4 4 2 1 1 3 2 3 4 5 7 7 5 2 1 3 6 8 8 9 10 14 15 13 12 13 13 12 12
27 24 20 14 13 15 13 8 3 3 9 8 3 1 1 1 3 5 6 5 7 10 11 10 9 7 5 5 4 6 6 6 8 7 6 4 4 5 6 10 11 6 3 3 3 2 3 5 6 5 2 6 7 6 5 5 4 4 5 5 4 4 3 3 2 3 3 3 3 5 5 3 2 2 4 7 7 10 10 7 10 14 12 13 13 10 10 11
25 19 14 11 11 10 7 4 3 1 6 4 1 1 3 3 3 3 4 6 7 10 11 12 11 8 5 3 5 6 3 3 5 4 6 6 5 5 4 7 11 9 4 3 3 3 4 5 6 9 8 8 9 8 7 5 5 2 2 3 3 4 4 3 2 4 4 1 2 2 1 1 3 2 2 9 9 11 11 8 9 12 11 12 11 9 8 8
22 14 9 10 10 7 5 6 5 3 4 1 0 3 4 3 4 2 4 6 7 8 10 12 10 6 4 2 5 5 0 2 2 5 3 5 5 6 6 6 9 10 7 4 3 2 3 5 4 7 11 10 9 8 7 5 2 2 0 3 6 6 6 2 2 1 4 3 2 0 1 3 2 1 2 8 11 10 10 9 9 9 9 10 9 8 7 7
20 12 7 12 12 9 8 9 10 8 3 0 1 3 3 4 6 6 7 9 11 11 10 7 6 5 3 1 3 4 3 4 4 5 2 1 1 4 5 3 5 10 11 7 4 2 4 5 5 3 7 9 9 9 8 7 6 2 2 4 5 3 4 3 1 2 3 2 3 2 5 1 2 1 4 6 10 9 9 9 11 10 10 10 9 8 9 9
14 10 9 10 8 10 10 11 12 9 2 1 3 4 4 5 7 9 10 11 12 11 9 6 5 5 3 2 5 5 5 5 4 4 1 3 1 1 3 3 5 4 6 7 5 3 3 3 7 4 3 4 4 8 7 6 6 6 5 3 3 3 2 1 2 2 0 1 2 2 3 2 2 1 5 5 5 7 9 9 11 12 11 11 10 10 11 10
6 5 6 1 7 10 8 7 8 4 1 2 3 3 4 6 9 12 13 12 11 8 7 7 6 5 3 4 6 7 3 2 4 3 1 1 2 2 3 3 6 6 7 5 4 4 3 2 4 6 1 4 4 4 5 5 5 6 4 2 3 3 3 1 2 3 3 3 1 3 3 1 1 3 4 3 1 6 10 9 10 10 10 9 8 9 10 8
3 2 3 3 8 6 3 4 4 2 2 3 4 4 6 7 9 11 13 12 9 5 5 7 8 5 4 5 7 8 7 3 2 2 2 3 3 2 2 3 5 8 10 8 3 3 2 3 2 5 4 3 2 2 2 1 3 4 3 2 1 1 2 2 2 2 3 3 3 2 1 3 3 3 4 5 4 4 9 10 8 8 8 7 7 7 8 8
3 2 2 3 5 4 4 4 3 2 3 4 4 6 8 8 9 10 12 11 8 6 6 6 7 6 3 4 7 6 7 4 1 2 1 1 2 1 0 1 3 7 8 6 5 3 2 1 4 3 3 2 1 5 6 6 5 2 3 4 3 3 3 2 1 2 1 3 4 5 2 3 4 2 1 4 4 5 7 9 8 7 7 7 6 6 8 8
3 1 3 7 5 4 5 2 2 2 3 4 5 8 9 8 9 10 13 14 10 5 4 4 5 7 4 2 5 6 6 5 1 2 1 1 2 2 2 2 3 4 4 1 3 2 1 0 1 2 3 2 2 4 8 11 10 6 3 3 2 2 4 5 3 3 1 2 1 3 3 2 3 0 2 4 6 6 7 8 8 6 6 6 6 6 6 8
2 2 5 9 7 6 4 1 3 2 2 4 6 9 10 8 9 9 11 14 10 3 4 4 4 6 5 4 6 8 8 6 3 0 5 5 3 4 1 5 7 5 3 1 2 4 1 2 2 2 4 3 3 5 7 11 11 7 6 7 6 4 2 3 6 4 2 0 0 3 2 2 2 4 5 6 8 8 8 8 7 6 6 6 6 7 7 6
3 3 4 8 10 8 2 2 4 3 4 5 7 8 8 8 7 8 8 11 10 5 5 6 5 5 5 5 7 10 9 6 3 1 4 4 1 3 3 6 7 3 2 1 1 2 2 1 2 3 3 4 5 4 4 7 6 3 4 7 9 10 9 3 2 5 3 5 6 5 2 2 2 5 6 7 9 9 7 7 7 6 5 6 7 7 6 6
3 3 2 4 6 4 3 1 3 4 4 5 7 7 8 6 6 8 10 11 10 7 4 4 6 7 6 6 7 9 9 7 5 1 3 2 2 4 5 6 7 2 2 2 1 1 1 1 2 2 1 2 2 2 1 2 2 2 4 9 13 13 12 5 2 5 2 2 5 5 4 3 3 5 7 7 9 8 6 5 5 5 5 6 7 7 6 6
2 2 1 1 1 4 3 1 3 3 3 4 5 6 8 7 6 7 9 9 10 10 5 3 5 6 6 7 7 6 8 10 8 4 4 2 0 2 4 9 9 6 4 4 4 2 3 1 1 2 3 4 5 3 2 1 2 4 6 11 13 12 11 7 4 3 0 1 4 3 9 9 5 6 7 6 7 7 6 7 7 6 7 8 8 8 9 8
2 1 1 1 2 3 3 3 4 3 3 4 2 4 7 7 6 7 7 7 9 11 7 4 6 7 7 8 5 5 8 8 8 8 6 5 4 3 2 5 8 7 6 2 3 2 4 2 2 1 3 4 5 4 2 1 4 5 6 10 12 11 12 10 5 2 3 2 3 3 10 11 7 7 7 6 6 7 5 6 7 6 7 7 7 10 12 12
1 1 1 2 1 1 2 2 2 3 5 4 1 4 6 7 6 5 5 6 8 10 7 5 9 11 11 9 3 4 8 7 7 7 6 6 6 5 4 4 5 4 2 1 1 3 2 2 4 4 5 5 6 5 4 3 3 5 5 7 10 11 12 10 3 3 2 4 4 6 9 11 7 7 7 6 6 7 6 6 7 9 9 9 11 14 14 14
1 1 2 2 1 2 4 2 1 5 5 3 2 3 5 7 8 5 4 5 5 8 7 5 9 11 10 9 5 5 6 4 4 5 4 5 6 4 4 3 4 7 8 4 3 4 2 1 1 3 6 7 7 8 7 5 4 5 5 6 9 10 9 7 4 5 9 9 5 9 14 10 5 7 8 7 6 5 3 2 5 9 12 13 15 16 15 14
2 1 2 2 2 2 6 3 2 5 4 4 3 3 5 7 8 6 6 5 4 6 7 7 9 7 6 7 7 6 5 4 4 5 4 4 4 3 2 1 0 4 5 3 3 4 2 2 4 3 3 4 5 9 9 6 5 5 5 6 8 8 7 6 3 5 9 9 7 10 13 8 4 5 8 9 8 7 7 6 5 6 9 13 16 15 14 14
7 7 5 2 4 3 2 2 3 4 3 3 2 3 4 6 8 6 5 6 6 6 7 8 9 7 4 7 7 6 7 8 7 7 6 5 4 5 4 1 4 2 1 1 2 4 2 1 4 5 2 4 4 1 4 6 6 6 6 7 7 3 4 4 2 2 5 7 6 7 7 4 2 4 8 10 12 12 11 10 8 9 11 14 15 14 14 13
11 10 9 3 3 5 1 4 5 4 1 2 1 2 3 3 7 6 3 5 8 8 8 8 7 6 4 6 7 7 9 10 10 9 6 6 7 9 8 4 6 6 3 2 2 2 2 2 3 4 3 4 8 7 4 4 6 5 5 8 10 4 5 7 4 4 7 8 7 4 3 4 4 6 9 12 13 13 12 10 8 9 12 14 13 13 13 12
Wind_Direction
350 349 348 348 347 346 345 344 343 339 336 328 322 316 312 313 312 312 313 312 315 314 314 316 314 316 318 321 322 324 325 318 313 301 265 262 269 254 218 215 266 265 229 231 228 224 210 201 220 233 238 247 234 238 250 253 240 211 202 225 246 251 254 259 256 270 298 6 354 3 32 24 30 60 20 76 107 97 85 74 71 62 72 100 104 107 112 117
350 349 348 347 347 346 344 344 343 342 340 336 330 323 317 314 312 312 311 311 312 311 313 314 314 318 320 323 326 329 328 316 303 282 268 269 260 242 237 241 250 250 222 212 217 220 207 190 209 222 226 240 234 228 223 231 238 219 209 220 230 243 251 261 269 287 302 324 345 24 62 5 357 63 40 27 106 102 94 94 90 79 81 96 99 106 117 122
350 349 349 347 347 345 345 344 342 342 340 339 335 328 323 317 315 311 309 310 308 310 312 314 318 320 323 326 329 336 327 315 297 271 285 294 244 234 231 236 242 239 231 218 209 214 220 204 200 210 220 234 238 227 212 207 230 223 213 233 242 241 254 263 266 278 281 289 6 37 106 142 344 46 146 87 60 80 103 118 104 101 103 101 99 109 123 130
352 351 349 348 347 345 344 343 342 341 338 339 337 334 328 320 317 312 310 308 306 310 311 315 319 319 326 327 332 340 324 310 285 250 298 350 227 220 217 224 234 235 237 228 212 217 232 223 203 207 220 227 235 237 230 212 210 220 206 227 251 252 265 262 259 278 292 318 42 99 77 48 348 305 100 85 64 76 111 122 111 121 118 111 112 120 132 138
353 351 350 348 348 345 344 342 341 340 338 338 337 336 331 325 319 313 311 308 307 308 310 315 317 322 325 325 338 343 329 325 359 209 27 36 171 195 206 215 222 230 238 225 217 229 244 245 221 209 218 228 230 235 242 226 211 238 230 226 242 251 265 269 279 297 313 352 22 37 20 10 1 336 351 41 137 139 141 129 122 126 120 121 126 130 132 129
352 350 349 347 347 344 343 343 341 340 339 337 335 334 332 328 319 314 310 306 308 305 308 312 315 324 322 326 340 335 334 290 306 321 337 115 114 154 190 208 218 226 231 215 217 238 247 250 239 217 214 226 230 234 243 232 215 238 254 238 238 238 251 270 284 290 315 8 20 8 339 347 12 334 316 351 139 154 149 135 128 126 121 124 130 135 128 122
350 348 347 345 345 344 343 342 340 339 337 336 334 332 329 327 321 315 309 305 304 300 304 310 316 324 327 341 347 261 230 261 284 296 256 186 126 149 174 201 214 214 209 203 212 231 240 245 240 226 217 218 230 240 250 249 232 233 247 249 249 245 251 266 269 265 278 15 44 12 328 329 331 265 326 64 126 146 145 125 119 121 124 128 136 139 129 128
349 347 345 344 343 342 342 340 339 337 335 334 331 328 326 325 324 318 312 307 305 304 307 311 320 327 337 351 353 236 241 255 275 272 207 181 152 154 168 190 204 200 197 201 209 218 234 246 236 226 232 228 230 235 246 259 251 240 241 245 250 254 259 267 272 270 242 179 123 108 292 296 276 280 350 107 136 147 142 122 114 118 122 130 140 136 133 136
347 346 345 343 342 340 340 337 337 335 332 332 329 326 323 322 324 322 316 309 306 307 308 313 317 324 344 345 324 298 260 248 254 225 191 184 175 165 172 182 193 190 194 209 217 226 232 244 237 221 233 245 245 243 243 250 254 248 245 245 244 248 257 264 272 277 268 197 148 162 216 265 285 3 359 143 142 138 136 130 124 125 125 130 139 140 143 139
347 345 343 342 340 338 337 335 334 332 331 328 325 324 322 321 321 320 318 311 306 304 304 311 311 320 339 299 260 276 261 235 185 191 189 190 180 174 180 181 189 185 194 214 218 234 240 244 247 223 234 256 258 260 254 245 253 262 260 255 243 243 252 257 262 270 280 249 137 144 227 250 260 313 277 172 153 144 137 138 135 133 137 139 137 143 151 141
346 344 342 341 339 337 335 334 332 329 328 325 323 321 320 321 318 317 317 311 304 301 301 307 311 327 320 286 250 238 249 239 181 191 194 194 188 188 185 182 192 188 197 218 220 233 241 248 256 241 228 249 262 268 269 264 272 276 281 281 261 252 252 250 256 269 286 261 150 192 258 256 238 194 237 210 167 154 146 146 140 136 141 143 139 146 157 144
346 343 342 339 337 336 334 332 330 327 326 324 322 320 320 320 318 314 311 309 302 294 298 301 309 331 304 279 228 242 256 264 266 263 214 186 196 211 196 189 198 194 199 218 231 231 236 245 254 256 234 228 249 258 277 277 275 275 283 289 281 277 263 244 245 264 275 233 165 188 244 257 241 214 231 219 190 162 151 150 143 141 143 145 146 151 161 154
344 342 340 339 336 334 332 331 328 325 323 323 322 322 323 320 317 314 309 306 299 288 292 290 276 303 303 261 242 257 273 280 280 283 252 194 188 219 216 208 206 202 205 219 238 240 242 244 246 257 262 261 251 281 307 288 268 266 272 275 282 295 279 246 229 256 262 210 174 182 219 251 239 230 237 225 215 175 153 157 149 146 145 146 152 155 164 159
342 341 338 337 334 333 331 329 327 325 322 323 323 323 324 321 317 313 309 306 299 288 276 275 249 242 252 250 271 279 284 278 273 280 264 207 186 212 220 223 218 212 213 223 240 255 263 258 254 274 284 286 292 315 313 303 293 274 276 281 268 270 278 268 241 243 250 208 178 178 202 243 235 231 234 228 230 186 157 166 153 148 147 145 155 159 163 159
341 339 336 334 332 331 330 328 328 326 324 324 323 322 321 319 311 309 316 315 302 277 248 277 233 208 285 267 281 297 295 270 255 259 257 211 195 210 213 224 226 219 219 230 245 262 279 283 270 254 272 296 306 308 303 301 300 263 247 271 260 240 257 270 254 238 243 217 185 188 211 236 231 238 233 222 237 199 160 171 155 149 149 146 156 157 156 156
338 336 334 332 330 329 329 328 328 326 325 324 321 321 318 315 306 306 317 306 286 246 205 266 217 199 290 272 286 308 285 249 235 240 244 213 208 217 213 219 227 227 229 243 255 267 285 299 291 247 256 267 272 275 289 301 293 270 223 239 250 245 249 251 244 238 245 236 196 198 211 230 222 242 244 224 232 194 150 165 160 154 149 146 153 151 151 151
336 334 331 330 327 328 328 327 328 326 324 323 322 320 315 311 297 298 309 288 272 215 202 256 236 197 250 271 299 306 250 224 217 224 231 216 218 226 218 211 211 223 233 244 254 260 273 277 250 283 265 240 237 213 253 268 262 273 250 233 243 245 246 250 242 229 236 236 211 201 204 224 221 235 244 228 223 195 150 161 164 156 145 148 151 148 154 155
334 332 329 328 326 326 327 327 326 325 325 323 323 322 314 304 284 284 301 289 101 210 240 273 284 222 247 259 267 255 240 225 207 210 221 212 218 232 229 214 190 205 223 237 243 231 231 234 192 242 246 232 233 205 214 225 221 241 245 233 236 236 237 248 253 237 230 222 212 205 200 220 236 241 248 236 218 202 172 162 157 153 146 152 155 153 162 162
332 330 328 326 325 325 326 326 325 324 326 323 324 326 315 300 284 266 248 202 143 172 255 237 200 198 260 251 238 252 267 218 193 199 212 201 206 231 240 230 190 186 210 203 217 206 184 226 222 222 234 223 219 218 225 234 225 234 244 238 225 229 232 237 243 246 242 216 205 207 191 206 226 236 250 254 240 220 194 153 139 149 149 154 160 157 165 166
331 328 326 325 325 324 324 324 323 323 327 327 332 338 326 317 344 170 212 213 207 228 251 222 191 216 261 272 273 277 279 170 174 198 203 190 192 217 240 234 185 184 216 189 202 206 168 197 227 220 223 225 226 225 233 249 248 247 255 261 257 252 245 242 240 239 239 218 203 203 183 196 214 224 240 249 264 253 199 154 136 147 148 153 158 158 168 170
330 328 328 326 324 323 322 322 320 321 324 322 328 338 294 293 291 278 287 237 220 222 242 242 215 224 242 254 270 276 280 185 183 209 195 182 185 201 218 212 192 199 218 212 218 206 178 206 227 225 224 229 235 228 224 240 252 259 265 275 278 277 272 265 266 252 235 217 203 194 181 197 205 214 232 238 257 255 182 148 142 148 152 157 158 163 172 168
331 330 328 326 324 323 322 321 318 318 316 308 305 263 251 278 276 285 298 280 255 232 236 245 235 239 241 245 258 263 274 250 212 218 183 169 177 194 189 188 197 217 207 215 240 203 200 230 230 223 226 231 239 238 226 229 243 257 264 275 280 279 286 285 285 275 248 210 194 186 187 204 202 209 223 219 216 218 168 147 150 155 157 161 163 168 171 165
331 330 328 327 325 324 324 321 315 313 308 289 246 219 263 300 304 298 295 289 290 269 240 239 234 239 239 243 253 249 256 248 217 216 181 166 181 195 192 190 195 223 209 200 222 208 213 234 223 220 229 232 238 242 236 228 237 243 237 256 267 264 275 283 288 286 267 194 165 168 180 224 210 208 225 225 192 190 188 162 153 162 164 163 168 169 167 165
331 330 330 327 325 327 328 322 316 317 317 284 251 258 284 298 298 303 314 262 286 280 249 238 229 233 232 227 231 230 242 243 224 208 177 170 188 184 198 216 195 220 225 204 210 216 240 239 213 213 226 232 237 242 238 217 228 242 225 224 249 263 267 272 300 319 335 352 107 114 78 312 256 207 240 265 209 186 194 163 142 155 159 156 161 164 162 161
331 330 330 327 327 328 328 325 319 333 333 288 264 294 311 300 291 316 2 282 269 280 253 232 217 231 230 217 208 205 220 232 228 223 175 172 184 176 196 222 203 217 222 218 216 215 241 242 210 206 221 229 233 240 237 209 212 268 238 218 237 267 277 288 308 336 358 330 358 85 75 299 291 240 260 281 245 208 187 157 134 140 149 151 152 158 157 138
330 329 329 328 328 330 333 328 313 328 326 286 291 326 341 344 333 349 16 291 273 267 246 200 175 212 218 201 190 190 210 226 213 224 198 175 184 190 195 209 212 220 219 222 224 208 232 238 222 211 213 217 223 236 231 201 188 262 256 247 250 262 271 279 296 315 335 279 281 94 119 258 307 296 266 255 230 227 181 148 130 135 149 152 151 156 147 109
330 327 329 326 328 334 336 311 313 325 317 292 321 339 349 357 352 356 42 8 285 241 212 164 161 185 186 176 172 174 208 209 180 214 212 176 182 195 201 211 207 218 226 224 228 214 212 226 235 228 214 211 218 227 208 167 163 226 248 275 273 267 262 255 262 272 249 230 253 154 126 172 292 284 272 258 240 238 167 140 128 137 149 146 150 148 124 105
331 329 329 324 324 324 297 287 308 315 294 304 327 338 340 344 343 357 72 61 297 266 168 124 177 166 186 176 166 171 217 199 159 208 197 173 180 182 199 226 233 225 228 220 232 232 205 209 227 239 240 229 214 194 176 152 168 231 222 248 263 268 265 251 230 247 253 170 271 258 127 126 273 271 281 287 271 243 183 155 143 144 147 146 148 126 102 102
333 330 328 325 324 325 292 270 272 289 315 324 336 335 333 335 341 26 92 215 291 307 136 111 131 171 220 176 165 182 217 235 214 198 168 168 188 197 200 227 243 256 260 250 244 240 214 200 209 227 239 234 209 164 161 160 197 223 221 239 258 268 273 261 225 220 120 170 250 258 141 122 279 274 282 316 290 239 209 164 144 143 145 148 137 108 101 104
333 328 329 326 320 337 346 269 259 306 333 331 330 326 321 326 3 88 189 261 278 278 136 86 128 172 195 189 176 186 207 243 255 190 151 155 189 210 243 233 237 259 272 265 257 253 250 225 204 214 219 238 266 176 178 209 222 216 216 235 258 268 276 269 227 160 110 218 240 237 170 143 242 279 256 111 281 246 174 117 124 141 142 139 121 107 106 110
329 326 327 321 305 308 328 268 268 331 345 337 335 328 319 330 75 151 221 278 283 262 185 146 180 168 187 200 188 186 204 239 255 210 171 149 176 201 232 261 242 255 275 278 270 256 248 241 227 197 179 189 253 255 233 229 225 220 212 211 237 279 304 308 256 156 143 246 227 194 205 173 193 270 257 159 335 326 129 125 131 139 133 120 110 109 109 111
325 325 320 310 295 274 256 251 280 338 351 346 342 335 355 77 184 226 255 317 290 237 139 196 202 180 187 199 205 196 190 223 244 225 185 155 166 190 187 206 209 210 270 284 277 257 243 234 245 215 169 166 186 231 256 254 227 215 219 194 193 285 344 323 242 191 190 242 208 187 206 209 209 253 267 45 29 51 124 139 139 137 127 106 102 111 117 118
323 322 315 306 292 265 258 270 294 345 353 345 337 334 77 103 220 220 230 278 273 299 353 320 263 226 196 194 216 210 184 207 232 217 186 165 172 191 192 208 213 184 220 250 256 268 275 264 255 235 152 155 191 209 221 253 230 202 199 171 174 202 37 279 251 207 208 226 208 200 210 227 259 343 68 60 51 76 107 128 132 131 123 107 101 109 116 116
324 322 314 300 285 271 270 275 268 331 327 323 341 58 110 205 241 227 227 251 273 301 316 304 298 296 243 207 216 221 202 210 219 196 166 157 192 209 192 209 222 215 205 234 242 221 238 264 250 239 192 163 196 220 216 241 247 195 175 151 161 165 164 232 227 179 216 247 246 226 215 193 194 212 105 86 62 72 83 87 108 113 109 104 103 107 108 106
327 328 315 289 274 271 256 218 178 284 298 303 48 128 187 216 252 250 249 253 262 286 296 294 294 280 254 229 201 214 222 220 247 235 178 164 194 218 194 201 217 221 207 208 234 229 236 246 216 216 218 180 186 214 225 261 297 273 163 151 196 185 174 224 204 171 174 61 339 250 237 242 176 225 106 99 77 66 75 72 89 107 111 107 107 112 111 103
330 334 311 275 261 246 197 168 155 193 253 307 114 224 215 233 256 254 278 279 273 291 308 310 302 274 260 251 207 215 190 106 301 289 228 168 182 218 221 200 201 210 206 186 218 227 227 256 239 212 216 202 189 194 201 213 250 289 231 196 221 188 145 156 275 283 103 97 298 131 85 332 35 344 342 90 84 66 66 64 70 92 107 111 115 119 114 101
333 334 290 267 259 233 196 179 174 182 207 360 209 241 250 251 259 266 285 295 297 309 319 312 302 297 297 292 252 231 169 145 191 234 262 34 218 249 252 241 212 210 210 209 239 253 215 255 293 245 219 221 198 184 206 200 160 152 260 216 212 160 108 110 154 339 41 110 262 133 126 57 56 292 321 52 75 71 68 66 61 59 72 94 105 106 99 93
326 319 287 274 243 199 194 197 187 173 157 285 250 259 270 260 269 278 287 295 300 310 314 297 295 308 305 318 309 268 188 151 172 202 329 5 309 13 25 320 295 262 235 229 235 256 228 261 295 271 211 266 220 177 212 231 165 171 211 179 124 108 77 33 143 178 198 195 294 38 104 78 68 307 325 10 67 86 77 66 65 60 63 80 91 95 93 92
307 301 292 335 132 157 180 190 184 165 147 249 250 258 267 262 264 271 276 284 289 293 294 286 288 296 294 302 311 303 278 150 154 173 97 5 254 313 33 336 302 324 338 316 245 237 206 152 290 289 38 8 323 183 199 239 212 204 212 104 92 137 146 145 174 170 169 189 317 8 354 355 360 315 344 359 14 97 92 75 68 67 63 69 83 98 105 105
258 252 274 121 132 165 183 154 153 152 208 230 246 254 265 268 264 262 262 265 269 268 270 286 298 302 309 321 323 327 333 339 147 151 166 174 209 278 18 21 316 318 338 348 354 299 290 136 211 292 356 43 321 271 207 222 245 224 201 159 150 120 115 142 205 183 140 153 154 131 275 273 272 305 16 42 15 57 93 87 76 73 67 64 70 95 118 123
252 285 267 160 156 158 111 111 150 182 220 243 253 256 268 279 283 285 285 284 277 264 268 288 307 306 289 323 330 326 325 324 111 100 29 152 146 244 181 118 305 323 342 357 14 7 347 149 186 247 325 86 161 315 350 16 346 268 192 201 179 137 120 120 290 302 82 125 160 153 161 278 269 271 30 66 45 30 67 84 81 69 67 63 52 70 107 119
246 297 170 160 166 154 118 125 227 201 215 258 270 274 284 292 300 311 315 306 287 270 299 316 326 324 309 309 319 308 311 321 6 86 87 106 132 210 253 316 333 357 20 15 324 323 133 131 203 216 251 169 130 339 5 22 2 360 44 1 356 108 128 138 181 258 360 35 71 114 109 279 279 128 86 79 72 44 38 69 82 73 69 64 41 40 78 110
249 305 163 158 172 179 162 300 313 314 281 291 296 297 301 303 306 316 321 313 305 332 4 334 325 334 335 346 339 318 302 295 307 215 165 164 189 208 180 39 34 23 29 68 300 308 7 31 355 318 306 335 15 1 26 36 21 15 26 19 16 7 16 157 172 165 131 170 47 77 101 256 337 60 72 67 66 50 29 39 57 62 64 63 50 36 45 77
288 291 180 175 190 186 146 11 334 317 309 324 329 320 311 301 304 320 324 317 318 343 360 339 333 330 330 352 341 316 300 289 307 32 141 153 189 219 184 78 68 45 360 128 213 287 323 25 39 23 353 344 338 340 17 28 28 24 357 16 25 14 10 16 135 110 122 187 159 130 164 206 71 70 72 67 68 62 41 28 35 52 65 59 56 50 43 47
297 271 176 182 190 154 88 353 322 335 336 343 336 322 315 312 324 337 329 316 316 322 330 332 334 333 334 342 325 310 320 328 320 8 98 119 152 200 197 130 104 78 299 278 229 96 96 167 94 85 141 188 232 241 247 323 9 12 354 21 29 21 18 14 112 91 82 183 133 127 147 131 88 81 78 79 83 78 68 61 53 59 78 78 76 73 67 59
304 286 21 13 43 69 78 317 8 22 351 348 335 325 336 338 336 342 336 329 330 329 322 309 324 337 338 328 316 313 329 332 333 18 49 15 71 207 192 148 145 178 213 283 314 55 76 6 66 129 192 190 189 186 189 183 73 39 12 28 34 28 28 37 72 78 352 64 64 121 142 128 120 114 103 97 95 84 78 82 71 50 53 65 71 71 69 64
288 295 34 354 342 30 47 10 27 43 353 360 350 330 349 350 341 347 348 345 346 345 345 343 348 3 352 327 323 332 328 335 6 30 27 351 340 321 289 136 142 167 173 212 314 72 81 6 313 272 252 223 198 174 148 93 74 58 34 35 39 37 40 52 65 284 264 99 79 147 132 120 128 136 128 126 111 102 104 103 99 88 77 78 79 74 70 64
248 175 88 137 206 24 53 357 12 45 17 14 9 336 352 2 2 2 344 343 0 4 3 351 354 13 8 347 359 11 346 0 28 20 11 1 351 335 343 41 61 43 59 121 64 74 89 204 214 216 217 208 192 163 136 126 101 75 56 51 52 49 50 60 56 309 351 101 152 158 115 107 123 130 128 136 127 127 142 136 128 129 127 121 106 90 78 68
354 24 18 68 124 164 164 197 140 77 31 360 19 354 346 2 12 13 353 358 11 7 14 7 353 4 8 358 31 50 10 10 12 350 352 360 343 320 337 18 28 9 11 25 44 44 27 269 252 223 218 204 181 166 157 149 141 132 125 97 79 72 69 70 43 21 51 62 89 112 99 87 99 112 112 119 118 119 129 118 122 131 132 121 106 92 81 72
5 332 341 2 330 213 172 173 120 101 43 356 27 7 344 2 10 2 360 22 31 360 9 18 358 353 5 10 30 44 15 356 330 314 319 342 331 293 310 50 47 2 18 34 17 30 40 312 351 357 258 239 193 169 161 154 151 147 134 102 85 88 88 80 53 44 59 48 41 85 98 87 65 91 98 99 92 76 56 39 49 87 101 97 90 82 77 73
358 346 358 4 309 297 155 91 56 88 51 351 37 24 357 356 359 357 355 9 23 9 359 6 360 353 5 18 22 9 346 331 307 293 296 309 298 278 279 188 154 149 91 96 31 42 67 333 1 32 22 314 320 95 136 134 118 87 55 27 10 36 108 110 102 82 104 105 75 64 86 107 121 107 90 80 75 68 59 49 43 50 64 74 79 79 77 75
2 352 0 15 278 304 48 84 51 60 31 308 6 43 29 356 353 5 9 357 5 1 355 360 360 354 360 12 3 334 316 308 297 289 283 272 265 272 279 244 169 158 146 118 103 103 122 113 39 38 45 333 335 352 13 80 82 53 13 342 323 300 134 113 97 107 122 128 121 104 115 130 127 105 84 73 70 68 64 58 57 63 70 73 76 79 79 77